Location: *
(48.7358°N, 0.3111°E)
Time: 05:39:50
(UTC+00:00)

Meteor 1-21 - Pass Details

Date: 22 October 2019
Orbit: 844 x 888 km, 81.2° (Epoch: 13 November)

Event Time Altitude Azimuth Distance (km) Brightness Sun altitude
Exits shadow 04:20:26 46° 260° (W) 1,126 4.4 -21.8°
Maximum altitude 04:21:14 50° 287° (WNW) 1,079 4.3 -21.7°
Drops below altitude 10° 04:26:45 10° 3° (N) 2,505 6.8 -20.8°
Sets 04:29:17 0° 9° (N) 3,452 7.6 -20.4°
